Airfield :
LOGIN :

Register | Disclaimer

   EN    FR    IT 

 










Legend :    VFR   Marginal VFR   IFR   Intensive IFR   Very Intensive IFR
Visi :
Ceiling :
>= 8 km
>= 3000ft
5 to 8 km
1000 to 3000 ft
1500m to 5 km
500 to 1000 ft
800 to 1500m
200 to 500 ft
< 800m
< 200 ft
Symbols :   Thunderstorms  Fog  Heavy snow  Heavy precipitations  Wind > 20 kt
SIGMETs :     Misc.  Thunderstorms  Icing  Turbulence  Mountain Waves  Volcanic Ashes







- Airport Elevation : 100 ft
- IATA code : DCI


LIED - Decimomannu Air Base

CURRENT METAR :
  • 220555Z 29015KT 9999 SCT020 SCT040 15/13 Q1016 RMK BKN VIS MIN 9999 WIND THR35 29013KT WIND THR17 /////KT BLU

EXPIRED METARs :
  • 220455Z 30014KT 9999 SCT025 15/13 Q1016 RMK BKN VIS MIN 9999 WIND THR35 30013KT WIND THR17 /////KT BLU
  • 220355Z 31017KT 9999 SCT025 15/14 Q1016 RMK SCT VIS MIN 9999 WIND THR35 31015KT WIND THR17 /////KT BLU

Expired Forecast.
No reported NOTAMs for that airfield.



MET'MAP, your aeronautical weather chart ! - Copyright ORBIFLY December 2007 - Disclaimer

ORBIFLY MET'MAP TEAM :

Programming & Development : Alexandra Zaïnal
Concept & Development : Baudouin d'Aumeries
Co-Development & Prog : Marc-Olivier Méhu
Technical & hardware support : Manuel Goepfert

Contact : metmap@orbifly.com




SOURCES & CREDITS :

   NOAA